Location: Unspecified
(43.4680°N, 87.1740°E)
Time: 21:04:04
(UTC+00:00)

Cosmos 2333 Rocket - Pass Details

Date: 17 April 2021
Orbit: 838 x 864 km, 70.8° (Epoch: 11 May)

Event Time Altitude Azimuth Distance (km) Brightness Sun altitude
Rises 15:05:02 0° 328° (NNW) 3,451 6.7 -21.3°
Reaches altitude 10° 15:07:38 10° 321° (NW) 2,508 5.8 -21.7°
Maximum altitude 15:12:57 40° 254° (WSW) 1,247 3.3 -22.4°
Enters shadow 15:16:14 21° 197° (SSW) 1,828 3.7 -22.8°
